Theta_e
310 310 310 310 310 310 310 311 311 311 311 312 312 312 313 313 313 313 313 313 314 314 313 312 314 314 314 316 318 317 310 311 313 314 314 314 313 316 315 315 316 316 316 316 315
309 309 309 310 310 310 310 311 311 311 312 312 312 312 312 312 313 313 314 313 314 313 312 312 313 315 315 317 319 313 307 309 311 314 314 315 315 315 315 314 314 314 315 315 315
309 309 309 310 310 310 311 311 311 311 311 311 311 311 312 312 314 314 313 313 312 312 312 314 315 315 316 316 318 314 311 312 315 316 316 315 315 315 314 312 314 314 315 315 315
309 309 309 310 310 311 311 311 311 311 310 310 311 313 315 316 311 314 313 313 312 312 313 314 315 315 314 313 315 316 316 315 316 316 315 314 315 315 315 315 314 314 314 313 313
309 310 310 310 311 311 310 310 309 309 310 313 315 317 318 318 318 317 314 314 313 313 312 313 313 314 313 313 313 313 314 315 316 315 314 314 314 314 314 314 314 312 313 315 315
310 310 310 310 310 310 309 309 309 311 314 316 317 318 317 316 319 318 318 316 315 312 312 312 313 314 314 313 312 312 313 313 314 314 313 312 311 313 314 314 313 313 313 313 313
310 310 310 309 309 309 309 311 313 315 316 317 317 317 317 319 319 318 318 317 315 311 311 312 313 314 313 312 313 314 312 309 311 311 311 312 311 310 315 313 311 312 312 312 311
315 315 315 315 315 314 314 314 315 316 316 316 316 317 315 317 317 317 317 316 316 314 312 313 313 314 314 313 311 311 310 311 311 311 312 312 314 312 314 314 309 310 310 309 309
315 314 314 314 315 315 315 315 315 315 315 315 317 316 316 316 316 316 316 314 313 312 313 313 314 314 313 309 308 308 311 309 310 312 311 311 312 313 312 313 308 307 306 306 306
316 315 315 314 314 313 313 314 315 315 316 317 317 315 316 315 315 314 313 312 312 312 312 312 313 308 307 307 312 311 309 308 310 312 312 312 311 309 309 311 306 304 304 304 303
318 317 316 314 314 314 314 315 317 317 317 317 316 316 315 315 314 313 312 311 311 311 308 311 307 309 309 308 309 310 308 310 310 310 312 311 310 304 305 305 303 302 302 301 301
322 321 319 317 315 315 315 317 318 316 317 316 317 317 317 313 313 312 311 312 311 309 308 308 308 308 308 308 309 309 310 309 310 310 311 311 310 304 304 303 303 301 300 300 300
323 323 323 319 316 316 316 316 318 319 319 319 318 318 317 317 314 313 311 311 310 309 309 310 311 310 309 309 309 309 309 311 312 311 309 310 309 307 303 302 301 300 299 299 299
324 324 323 321 317 318 317 317 318 321 315 315 317 317 317 316 314 315 312 312 310 310 309 309 310 311 309 311 310 312 310 311 312 311 313 308 311 306 303 302 300 299 298 298 299
324 324 325 324 320 319 319 318 319 319 324 316 314 312 313 316 312 310 310 311 310 310 310 313 311 311 311 312 311 313 310 310 309 308 309 309 309 308 303 304 301 298 297 297 297
324 324 325 323 319 319 319 319 320 319 325 316 310 309 310 309 309 309 310 311 312 311 310 312 309 309 311 308 310 308 308 307 306 307 311 309 310 309 305 305 300 298 297 297 297
321 324 324 324 320 319 319 319 319 322 320 316 310 308 309 308 308 308 308 309 311 313 312 311 310 309 309 309 308 309 310 313 313 311 314 308 309 309 305 303 301 297 296 296 297
321 323 324 324 320 320 320 316 318 319 320 309 310 308 309 307 308 308 307 309 308 309 310 313 314 310 308 309 309 308 310 313 313 314 314 309 312 310 301 301 299 298 297 297 297
320 322 323 322 320 320 317 321 319 318 317 313 312 311 309 309 308 308 306 307 308 306 313 312 313 309 307 309 309 309 311 309 309 295 308 310 308 304 300 298 298 297 297 297 297
321 320 319 320 320 319 319 320 316 317 319 316 316 314 311 312 311 308 308 309 312 306 309 312 313 309 309 308 307 309 308 312 308 309 308 309 309 309 301 299 298 296 297 298 297
318 316 316 318 318 317 318 315 315 316 317 319 318 318 318 318 315 313 312 312 310 309 308 309 313 311 309 309 309 309 309 308 309 308 308 306 308 305 303 300 299 297 298 299 298
317 314 312 314 312 312 310 312 314 316 317 316 316 317 319 317 318 318 318 314 310 310 310 309 312 314 311 307 307 308 307 308 310 308 305 307 310 300 303 301 300 299 300 299 299
314 314 314 314 312 312 313 314 314 316 316 316 315 315 315 316 316 317 316 311 311 309 311 310 311 312 310 308 308 310 309 307 307 305 304 306 306 300 300 300 300 301 300 299 298
312 311 311 311 312 312 313 315 315 315 315 315 314 314 314 315 314 315 315 309 308 310 310 310 307 306 310 308 307 309 307 307 306 305 303 307 304 302 300 300 299 299 299 298 297
306 307 308 311 310 313 312 313 313 315 313 314 314 314 313 315 315 314 311 307 304 307 308 309 311 308 306 306 307 304 304 305 304 305 310 308 307 303 301 299 299 299 297 295 291
303 304 305 304 306 312 312 313 313 313 314 314 313 314 313 313 313 313 309 307 307 302 306 304 310 307 307 303 306 306 306 306 305 305 303 304 305 300 302 300 297 297 294 291 291
301 301 303 303 305 308 310 310 312 311 311 311 312 311 313 312 308 305 307 307 305 304 305 304 303 304 306 295 296 303 301 304 306 301 304 303 302 289 290 292 294 293 292 291 290
Wind_Speed
7 6 6 6 5 5 5 6 6 7 7 8 8 9 10 11 12 14 15 7 6 6 5 4 4 2 1 1 2 2 4 1 4 3 4 5 6 5 10 4 5 5 7 11 15
9 9 9 8 8 8 8 8 8 8 8 9 10 11 11 12 14 15 5 3 3 3 4 5 4 2 1 1 1 3 3 7 4 2 3 6 4 11 7 13 9 14 10 8 11
11 10 10 10 10 10 10 10 10 10 10 10 10 11 12 12 14 2 2 3 4 6 8 7 5 0 0 1 3 4 5 4 4 9 5 3 5 3 4 5 17 15 20 16 13
12 12 12 12 12 12 12 12 12 12 11 11 11 11 11 10 4 3 3 3 4 6 7 7 5 3 3 3 5 2 9 7 4 4 3 4 3 5 10 21 20 17 12 8 8
14 14 14 14 14 13 13 14 14 13 12 12 11 11 10 8 10 11 11 9 9 8 10 8 8 6 3 3 2 3 4 7 14 13 13 12 11 8 22 21 7 4 6 8 9
16 16 16 16 16 16 15 14 15 14 14 13 12 11 10 9 11 11 11 11 11 10 12 11 5 8 3 3 3 2 5 12 14 21 11 7 3 4 5 4 6 7 8 7 7
18 18 18 17 17 17 16 15 15 15 15 14 14 12 13 20 13 11 12 10 9 9 11 12 11 7 4 1 2 4 6 8 10 5 4 6 1 7 10 7 6 7 7 5 6
19 18 18 18 18 18 17 16 16 15 15 15 14 12 11 15 16 17 18 15 12 11 10 9 9 8 4 1 3 2 2 4 3 3 2 4 6 5 5 11 7 6 6 8 10
19 18 18 18 18 18 18 16 16 15 15 14 13 10 10 14 15 16 14 11 10 10 10 8 8 4 4 5 4 3 4 5 8 0 3 2 5 12 11 9 10 10 11 13 15
19 18 17 17 16 18 17 16 15 15 16 14 14 6 16 9 9 11 12 11 8 10 8 7 5 3 2 4 5 6 5 5 6 1 4 2 6 10 18 5 14 17 18 20 21
20 19 18 17 16 16 15 13 11 7 17 12 6 8 6 11 9 10 12 14 9 7 5 5 4 9 13 12 2 3 5 6 3 4 3 5 5 7 16 21 19 19 22 24 26
23 20 18 17 17 17 15 8 7 5 11 17 24 23 20 9 6 12 15 13 9 6 6 3 8 10 4 5 5 4 3 6 4 5 4 3 3 6 15 10 16 19 20 23 25
28 24 20 19 19 20 19 17 12 7 7 10 23 22 28 27 15 16 20 11 5 7 8 8 6 5 7 5 6 5 7 4 7 2 1 1 2 3 6 16 19 19 21 22 24
32 28 24 22 22 23 23 13 14 6 4 6 7 7 12 13 7 17 24 11 4 10 6 7 7 6 5 7 9 5 8 7 4 3 4 1 4 3 4 6 9 16 20 23 24
28 33 32 33 24 19 16 13 10 6 6 1 4 6 12 10 10 5 19 8 6 7 7 7 6 5 6 7 6 6 5 6 4 4 1 3 2 1 7 3 4 9 16 18 20
31 28 33 36 35 25 16 14 17 4 13 4 4 5 6 4 4 6 5 4 4 4 3 5 1 5 5 2 6 5 6 5 4 3 1 8 7 4 6 6 7 10 16 18 19
34 33 32 41 41 31 25 25 3 7 1 6 5 6 4 5 4 4 6 6 6 5 6 2 4 2 4 5 3 3 5 1 2 0 5 2 4 4 3 6 16 18 20 18 17
37 36 35 36 41 41 30 5 7 6 9 4 4 4 7 7 5 6 6 6 6 2 3 6 4 10 6 6 7 6 6 5 7 4 3 0 6 3 1 14 27 28 24 19 16
31 38 41 37 41 34 25 9 8 5 6 10 4 4 5 5 6 5 7 5 8 11 7 6 5 1 3 4 7 5 5 3 6 3 3 4 1 2 5 7 17 23 23 20 15
27 33 33 35 41 39 11 13 6 4 4 2 15 6 9 8 8 8 9 4 4 10 5 4 1 1 2 3 3 4 6 3 2 2 4 4 4 4 11 14 12 14 24 22 15
16 5 6 26 39 19 7 4 4 8 5 6 6 5 5 6 6 6 7 1 2 0 10 4 3 1 3 5 7 3 3 3 4 5 5 2 5 2 16 20 18 22 28 24 19
15 1 7 20 2 2 4 7 5 5 6 1 2 3 4 4 4 5 7 3 3 1 6 2 4 2 7 1 1 1 6 6 4 5 3 3 7 6 12 22 26 24 26 20 16
11 12 16 29 4 5 3 5 8 5 4 4 2 3 5 4 1 5 6 3 3 3 3 3 3 3 4 2 0 4 3 3 4 3 7 5 5 4 10 13 21 25 23 19 17
10 3 6 15 7 9 6 5 7 9 5 7 4 3 3 4 4 5 4 2 2 3 9 5 2 5 8 3 3 3 3 4 5 3 4 7 3 3 6 11 15 18 21 20 19
2 2 2 3 7 4 12 11 12 7 12 17 5 13 13 7 9 6 5 2 2 3 4 5 4 3 3 3 2 1 5 9 8 8 9 7 8 11 12 12 21 21 20 22 21
3 1 1 3 4 11 5 10 16 15 8 7 14 13 15 11 13 10 9 6 5 2 4 3 3 3 2 3 2 5 13 6 9 5 5 4 13 7 14 16 14 22 26 25 22
16 9 4 1 2 1 3 4 8 7 5 6 8 5 12 13 2 1 10 10 8 9 8 7 6 4 3 2 3 8 11 17 13 5 10 10 10 7 4 10 19 23 28 24 17
Wind_Direction
277 274 270 269 269 273 279 288 296 302 307 311 312 313 313 314 312 310 309 284 249 251 252 216 201 230 269 86 76 96 60 235 245 186 268 335 16 330 329 262 311 282 283 298 306
269 272 275 276 277 277 276 280 286 293 299 305 308 309 310 312 311 306 295 261 226 201 172 167 174 153 97 100 148 101 121 221 223 213 251 312 318 323 325 317 305 313 325 319 307
267 269 268 273 275 277 280 283 285 289 295 299 302 305 310 316 318 251 172 139 143 153 154 161 168 227 222 200 202 158 196 211 249 240 254 257 282 290 299 304 308 320 318 318 317
265 267 269 272 275 278 279 281 284 288 292 296 298 300 304 309 300 205 196 212 216 202 191 191 210 177 190 212 206 184 245 231 258 243 257 248 272 269 258 280 314 317 328 8 24
265 266 269 270 271 274 277 280 282 285 287 290 292 294 297 279 260 263 257 255 245 236 223 219 211 196 190 215 194 211 269 270 272 273 272 272 251 258 278 298 330 23 50 15 356
264 267 268 269 271 271 272 277 280 283 285 287 288 287 279 259 265 258 252 250 247 240 228 224 236 216 214 228 180 277 276 280 285 276 266 230 256 187 299 121 53 354 21 18 2
260 264 267 267 269 271 272 271 275 279 283 286 286 283 266 260 266 256 249 242 238 235 229 229 214 195 174 270 283 311 324 325 272 285 213 176 82 230 260 320 19 40 44 43 43
265 261 263 267 267 269 271 273 273 276 278 281 283 282 260 264 254 249 245 245 242 234 228 223 216 224 211 194 16 0 32 337 272 146 156 142 259 276 322 337 85 106 94 81 74
264 265 264 263 265 267 269 270 272 274 274 274 277 263 265 258 249 242 237 237 226 216 212 206 195 197 150 107 7 1 238 213 311 60 119 112 276 284 356 348 119 109 95 86 80
264 265 267 266 264 264 265 270 274 273 268 268 251 269 241 241 235 229 217 207 194 188 173 183 177 105 62 114 224 202 216 242 236 37 60 336 268 289 349 253 128 104 95 87 76
261 265 266 267 267 265 268 275 276 261 233 217 206 210 276 225 220 211 201 182 173 173 165 177 131 209 198 202 193 168 186 214 247 252 147 232 247 19 15 87 98 99 98 93 84
258 259 262 264 261 260 260 245 245 285 295 252 245 245 243 234 226 208 192 179 177 188 123 73 225 225 183 185 200 236 231 251 281 269 165 253 311 58 39 58 89 97 95 96 95
256 253 254 255 254 253 253 247 251 281 265 264 239 238 236 232 232 212 195 199 175 160 195 187 212 176 176 182 187 207 203 190 224 339 320 305 289 133 65 73 90 101 109 102 94
250 249 247 243 248 248 246 247 241 264 285 252 223 219 199 195 227 217 203 197 189 198 179 238 235 182 184 216 177 211 203 191 185 129 231 109 261 176 119 90 85 107 113 111 106
250 246 244 236 236 225 242 231 205 180 273 190 161 163 156 177 146 180 192 193 172 181 141 231 184 179 203 212 173 220 145 168 157 135 61 256 121 232 134 144 140 128 121 111 105
247 244 244 234 224 225 218 194 163 149 233 211 137 158 126 176 156 123 161 167 172 152 230 230 192 182 209 89 173 130 91 56 57 89 260 230 174 209 188 179 156 157 140 128 117
251 243 239 243 222 213 196 165 187 208 207 198 185 169 164 166 172 158 163 173 173 139 219 195 216 206 167 99 73 94 112 118 8 64 227 135 138 238 288 184 165 161 154 143 130
242 243 241 242 227 212 188 183 207 207 209 111 115 107 181 157 201 174 146 190 237 148 124 174 244 172 187 182 174 185 176 165 204 196 232 156 230 246 119 134 150 158 156 155 149
240 238 239 231 227 211 170 209 205 178 198 146 119 164 216 203 157 141 195 211 200 183 194 175 269 225 161 148 137 183 203 167 104 42 64 229 347 193 117 127 151 163 167 169 168
218 219 217 222 221 204 206 208 215 223 142 173 195 171 184 193 160 176 182 196 216 186 193 213 183 172 135 115 58 164 165 101 359 168 250 268 256 221 186 180 183 179 185 179 180
193 160 195 214 204 195 207 237 182 207 193 205 178 150 187 186 182 176 192 114 110 258 175 168 126 233 127 198 184 157 185 61 128 151 177 241 253 216 190 183 186 191 191 186 186
188 146 217 169 191 152 155 184 193 176 173 148 105 103 178 168 178 188 183 160 149 143 160 351 88 190 224 133 275 283 206 163 161 215 228 169 252 324 183 179 185 191 191 192 195
186 202 192 185 198 223 175 167 184 162 191 137 139 164 178 188 169 224 202 68 87 65 131 105 176 128 338 318 14 209 205 122 93 63 199 168 261 34 126 166 183 187 193 194 193
163 177 183 208 225 194 195 194 175 188 158 153 155 148 159 200 177 179 171 104 95 126 99 71 171 184 195 150 108 160 220 186 145 162 168 232 177 195 190 174 179 192 192 191 190
138 168 227 185 218 228 187 184 203 184 205 197 205 200 193 188 207 203 182 125 41 140 145 133 223 183 190 125 68 193 223 197 194 201 196 231 214 191 199 198 190 194 190 185 181
215 212 333 326 309 207 204 206 196 194 167 196 218 201 209 204 196 188 144 178 195 107 139 150 189 158 239 348 181 241 244 213 222 209 256 230 259 170 203 205 200 200 193 187 185
208 199 149 243 254 229 230 197 205 133 193 186 186 169 207 221 151 94 145 172 167 160 161 168 150 134 223 36 82 281 233 211 218 202 203 214 233 158 184 199 200 194 192 187 189